User: anonymous   Login
Location: Mason Neck State Park
(38.6428°N, 77.1981°W)
Time: 23:33:04
(UTC-05:00)
Language:

Cosmos 1400 Rocket - Orbit

View from above orbital plane
View from above orbital plane
View from above satellite
View from above satellite

Ground track
Ground track

The orbit data is extracted from the following two-line orbital elements,

1 13403U 82079B   17055.81088689  .00000792  00000-0  51501-4 0  9997
2 13403  81.1681  38.0438 0032649 289.8621  69.9085 15.06489389879806
Epoch (UTC): 24 February 2017 19:27:40
Eccentricity: 0.0032649
inclination: 81.1681°
perigee height: 524 km
apogee height: 569 km
right ascension of ascending node: 38.0438°
argument of perigee: 289.8621°
revolutions per day: 15.06489389
mean anomaly at epoch: 69.9085°
orbit number at epoch: 87980

The dashed part of the orbit path shows where the satellite is in the earth's shadow,  

DLR